WAT503 LPPR-LPPT

Flight info

Callsign WAT503
Flight time 0h 53m
Altitude 31000
Route MANIK DCT ABRIL DCT XAMAX
Aircraft A306/H-SDE3FGHIRWY/LB1

Departure

Time 2026-05-04 21:46
Airport Francisco de Sá Carneiro Airport (LPPR)

Arrival

Time 2026-05-04 22:40
Airport Lisbon Humberto Delgado Airport (LPPT)
Time Latitude Longitude Altitude Speed Heading
2026-05-04 21:09 41.23682 -8.68484 241 ft 0 kts 258°
2026-05-04 21:18 41.23682 -8.68483 241 ft 0 kts 258°
2026-05-04 21:31 41.23691 -8.68433 240 ft 4 kts 250°
2026-05-04 21:31 41.23702 -8.68401 239 ft 4 kts 234°
2026-05-04 21:31 41.23719 -8.68378 239 ft 4 kts 197°
2026-05-04 21:32 41.23742 -8.68374 238 ft 4 kts 176°
2026-05-04 21:32 41.23769 -8.68379 237 ft 4 kts 166°
2026-05-04 21:32 41.23787 -8.68384 237 ft 0 kts 169°
2026-05-04 21:37 41.23769 -8.68380 237 ft 5 kts 170°
2026-05-04 21:37 41.23725 -8.68357 238 ft 8 kts 136°
2026-05-04 21:38 41.23715 -8.68257 239 ft 15 kts 90°
2026-05-04 21:38 41.23723 -8.68122 237 ft 13 kts 62°
2026-05-04 21:38 41.23802 -8.68106 232 ft 12 kts 349°
2026-05-04 21:38 41.23884 -8.68127 233 ft 12 kts 348°
2026-05-04 21:39 41.23966 -8.68149 229 ft 12 kts 348°
2026-05-04 21:39 41.24047 -8.68170 228 ft 12 kts 349°
2026-05-04 21:39 41.24130 -8.68192 226 ft 13 kts 349°
2026-05-04 21:39 41.24220 -8.68215 225 ft 14 kts 349°
2026-05-04 21:40 41.24317 -8.68241 223 ft 15 kts 349°
2026-05-04 21:40 41.24425 -8.68269 216 ft 16 kts 349°
2026-05-04 21:40 41.24545 -8.68284 216 ft 17 kts
2026-05-04 21:40 41.24644 -8.68245 215 ft 8 kts 19°
2026-05-04 21:41 41.24660 -8.68238 211 ft 0 kts 18°
2026-05-04 21:41 41.24661 -8.68238 210 ft 1 kts 18°
2026-05-04 21:42 41.24701 -8.68220 209 ft 10 kts 19°
2026-05-04 21:42 41.24789 -8.68183 210 ft 16 kts 13°
2026-05-04 21:42 41.24917 -8.68166 211 ft 22 kts 356°
2026-05-04 21:42 41.25091 -8.68172 192 ft 28 kts
2026-05-04 21:43 41.25285 -8.68102 182 ft 30 kts 18°
2026-05-04 21:43 41.25483 -8.68073 174 ft 26 kts 349°
2026-05-04 21:43 41.25628 -8.68112 171 ft 13 kts 349°
2026-05-04 21:43 41.25673 -8.68176 172 ft 8 kts 279°
2026-05-04 21:44 41.25673 -8.68205 172 ft 0 kts 267°
2026-05-04 21:44 41.25672 -8.68218 172 ft 4 kts 264°
2026-05-04 21:45 41.25668 -8.68263 172 ft 7 kts 262°
2026-05-04 21:45 41.25658 -8.68333 172 ft 6 kts 245°
2026-05-04 21:45 41.25633 -8.68336 173 ft 6 kts 177°
2026-05-04 21:45 41.25470 -8.68296 177 ft 55 kts 169°
2026-05-04 21:46 41.24869 -8.68137 208 ft 118 kts 169°
2026-05-04 21:46 41.23885 -8.67883 233 ft 172 kts 169°
2026-05-04 21:46 41.22606 -8.67549 685 ft 191 kts 170°
2026-05-04 21:46 41.21278 -8.67261 1554 ft 196 kts 173°
2026-05-04 21:47 41.19860 -8.67050 2353 ft 213 kts 176°
2026-05-04 21:47 41.19095 -8.66987 2733 ft 222 kts 178°
2026-05-04 21:47 41.18620 -8.66957 2910 ft 230 kts 179°
2026-05-04 21:48 41.16897 -8.66899 3343 ft 258 kts 181°
2026-05-04 21:48 41.15138 -8.66944 4504 ft 250 kts 181°
2026-05-04 21:48 41.13324 -8.66698 4966 ft 279 kts 171°
2026-05-04 21:48 41.11390 -8.66066 5713 ft 283 kts 162°
2026-05-04 21:49 41.09596 -8.65076 6827 ft 282 kts 159°
2026-05-04 21:49 41.07720 -8.64210 7622 ft 287 kts 168°
2026-05-04 21:49 41.05742 -8.63790 8552 ft 288 kts 176°
2026-05-04 21:49 41.03735 -8.63559 9393 ft 291 kts 179°
2026-05-04 21:50 41.01702 -8.63393 9863 ft 294 kts 180°
2026-05-04 21:50 40.99650 -8.63256 9990 ft 296 kts 180°
2026-05-04 21:50 40.97588 -8.63131 9994 ft 297 kts 180°
2026-05-04 21:50 40.95520 -8.63013 10013 ft 297 kts 180°
2026-05-04 21:51 40.93453 -8.62899 10295 ft 299 kts 181°
2026-05-04 21:51 40.91361 -8.62786 10998 ft 301 kts 181°
2026-05-04 21:51 40.89291 -8.62673 11837 ft 302 kts 181°
2026-05-04 21:51 40.87182 -8.62561 12651 ft 304 kts 182°
2026-05-04 21:52 40.85057 -8.62448 13434 ft 307 kts 182°
2026-05-04 21:52 40.82910 -8.62335 14155 ft 311 kts 183°
2026-05-04 21:52 40.80739 -8.62222 14801 ft 314 kts 183°
2026-05-04 21:52 40.78542 -8.62107 15448 ft 317 kts 183°
2026-05-04 21:53 40.76319 -8.61989 16084 ft 320 kts 184°
2026-05-04 21:53 40.74083 -8.61872 16709 ft 324 kts 184°
2026-05-04 21:53 40.71818 -8.61752 17335 ft 327 kts 184°
2026-05-04 21:53 40.69532 -8.61626 17961 ft 330 kts 183°
2026-05-04 21:54 40.67221 -8.61427 18550 ft 334 kts 182°
2026-05-04 21:54 40.64899 -8.61169 18917 ft 344 kts 181°
2026-05-04 21:54 40.62490 -8.60870 19351 ft 350 kts 181°
2026-05-04 21:54 40.60054 -8.60553 19865 ft 354 kts 181°
2026-05-04 21:55 40.57600 -8.60437 20363 ft 350 kts 191°
2026-05-04 21:55 40.55228 -8.61032 20712 ft 348 kts 205°
2026-05-04 21:55 40.52938 -8.62159 20952 ft 356 kts 209°
2026-05-04 21:55 40.51365 -8.63030 21104 ft 363 kts 210°
2026-05-04 21:56 40.49062 -8.64341 21337 ft 374 kts 210°
2026-05-04 21:56 40.46641 -8.65732 21551 ft 386 kts 210°
2026-05-04 21:56 40.44148 -8.67166 21787 ft 396 kts 210°
2026-05-04 21:56 40.41586 -8.68639 22001 ft 406 kts 210°
2026-05-04 21:57 40.38969 -8.70142 22204 ft 416 kts 210°
2026-05-04 21:57 40.36287 -8.71681 22424 ft 424 kts 210°
2026-05-04 21:57 40.33532 -8.73147 22729 ft 431 kts 207°
2026-05-04 21:57 40.30710 -8.74551 22980 ft 434 kts 207°
2026-05-04 21:58 40.27867 -8.75944 23011 ft 435 kts 207°
2026-05-04 21:58 40.25026 -8.77326 23013 ft 435 kts 207°
2026-05-04 21:58 40.22183 -8.78703 23011 ft 436 kts 207°
2026-05-04 21:58 40.19338 -8.80078 23007 ft 436 kts 207°
2026-05-04 21:59 40.16498 -8.81450 23009 ft 436 kts 207°
2026-05-04 21:59 40.13653 -8.82822 23009 ft 436 kts 207°
2026-05-04 21:59 40.10842 -8.84175 23010 ft 436 kts 207°
2026-05-04 21:59 40.07959 -8.85562 23015 ft 436 kts 207°
2026-05-04 22:00 40.05498 -8.86746 23017 ft 436 kts 207°
2026-05-04 22:00 40.02645 -8.88115 23015 ft 436 kts 207°
2026-05-04 22:00 39.99795 -8.89482 23017 ft 436 kts 207°
2026-05-04 22:00 39.96946 -8.90848 23016 ft 436 kts 207°
2026-05-04 22:01 39.94102 -8.92210 23013 ft 436 kts 207°
2026-05-04 22:01 39.91246 -8.93577 23016 ft 436 kts 207°
2026-05-04 22:01 39.88401 -8.94936 23014 ft 436 kts 207°
2026-05-04 22:01 39.85549 -8.96298 23019 ft 436 kts 207°
2026-05-04 22:02 39.82698 -8.97660 23020 ft 436 kts 207°
2026-05-04 22:02 39.79847 -8.99020 23023 ft 436 kts 207°
2026-05-04 22:02 39.76990 -9.00382 23014 ft 437 kts 207°
2026-05-04 22:02 39.74141 -9.01742 23017 ft 437 kts 207°
2026-05-04 22:03 39.71285 -9.03101 23019 ft 437 kts 207°
2026-05-04 22:03 39.68429 -9.04457 23020 ft 437 kts 207°
2026-05-04 22:03 39.65609 -9.05794 23020 ft 437 kts 207°
2026-05-04 22:03 39.62746 -9.07152 23020 ft 437 kts 207°
2026-05-04 22:04 39.59886 -9.08507 23024 ft 440 kts 207°
2026-05-04 22:04 39.56995 -9.09879 23019 ft 443 kts 207°
2026-05-04 22:04 39.54091 -9.11253 23026 ft 445 kts 207°
2026-05-04 22:04 39.51184 -9.12626 23033 ft 445 kts 207°
2026-05-04 22:05 39.48267 -9.14002 23033 ft 446 kts 207°
2026-05-04 22:05 39.45350 -9.15378 23029 ft 446 kts 207°
2026-05-04 22:05 39.42432 -9.16752 23017 ft 446 kts 207°
2026-05-04 22:05 39.39518 -9.18125 23022 ft 446 kts 207°
2026-05-04 22:06 39.36710 -9.19445 22989 ft 443 kts 207°
2026-05-04 22:06 39.33825 -9.20798 22444 ft 439 kts 207°
2026-05-04 22:06 39.30962 -9.22142 21584 ft 436 kts 206°
2026-05-04 22:06 39.28127 -9.23472 20813 ft 431 kts 206°
2026-05-04 22:07 39.25328 -9.24783 20159 ft 425 kts 206°
2026-05-04 22:07 39.22575 -9.26071 19564 ft 418 kts 206°
2026-05-04 22:07 39.19867 -9.27338 18968 ft 412 kts 206°
2026-05-04 22:07 39.17181 -9.28597 18350 ft 407 kts 205°
2026-05-04 22:08 39.14531 -9.29836 17688 ft 403 kts 205°
2026-05-04 22:08 39.11938 -9.31048 17070 ft 398 kts 205°
2026-05-04 22:08 39.09343 -9.32259 16466 ft 394 kts 205°
2026-05-04 22:08 39.06775 -9.33457 15863 ft 391 kts 205°
2026-05-04 22:09 39.04226 -9.34645 15275 ft 387 kts 205°
2026-05-04 22:09 39.01697 -9.35824 14660 ft 385 kts 204°
2026-05-04 22:09 38.99189 -9.36992 14041 ft 383 kts 204°
2026-05-04 22:09 38.96685 -9.38156 13382 ft 380 kts 204°
2026-05-04 22:10 38.94207 -9.39307 12770 ft 377 kts 204°
2026-05-04 22:10 38.91756 -9.40444 12179 ft 373 kts 203°
2026-05-04 22:10 38.89324 -9.41571 11589 ft 371 kts 203°
2026-05-04 22:10 38.86907 -9.42692 11055 ft 367 kts 203°
2026-05-04 22:11 38.84553 -9.43780 10940 ft 350 kts 203°
2026-05-04 22:11 38.82341 -9.44802 10837 ft 335 kts 203°
2026-05-04 22:11 38.80193 -9.45794 10739 ft 321 kts 203°
2026-05-04 22:11 38.78136 -9.46745 10625 ft 309 kts 203°
2026-05-04 22:12 38.76145 -9.47666 10476 ft 299 kts 203°
2026-05-04 22:12 38.74222 -9.48554 10343 ft 289 kts 203°
2026-05-04 22:12 38.72330 -9.49430 9928 ft 291 kts 203°
2026-05-04 22:12 38.70417 -9.50316 9436 ft 293 kts 202°
2026-05-04 22:13 38.68508 -9.51197 9166 ft 287 kts 202°
2026-05-04 22:13 38.66664 -9.52044 9077 ft 275 kts 202°
2026-05-04 22:13 38.64902 -9.52853 8982 ft 264 kts 203°
2026-05-04 22:13 38.63200 -9.53636 8748 ft 259 kts 203°
2026-05-04 22:14 38.61507 -9.54415 8434 ft 257 kts 202°
2026-05-04 22:14 38.59733 -9.54870 8039 ft 263 kts 183°
2026-05-04 22:14 38.57963 -9.54484 7867 ft 257 kts 159°
2026-05-04 22:14 38.56537 -9.53154 7537 ft 255 kts 128°
2026-05-04 22:15 38.55866 -9.51104 7144 ft 252 kts 94°
2026-05-04 22:15 38.55867 -9.48892 6836 ft 247 kts 84°
2026-05-04 22:15 38.55988 -9.46708 6502 ft 245 kts 83°
2026-05-04 22:15 38.56115 -9.44543 6141 ft 243 kts 84°
2026-05-04 22:16 38.56233 -9.42393 5799 ft 241 kts 83°
2026-05-04 22:16 38.56343 -9.40267 5445 ft 239 kts 83°
2026-05-04 22:16 38.56448 -9.38159 5134 ft 236 kts 84°
2026-05-04 22:16 38.56545 -9.36130 4976 ft 226 kts 84°
2026-05-04 22:17 38.56636 -9.34162 4775 ft 219 kts 83°
2026-05-04 22:17 38.56733 -9.32231 4546 ft 214 kts 81°
2026-05-04 22:17 38.57068 -9.30440 4397 ft 202 kts 66°
2026-05-04 22:17 38.57567 -9.28800 4191 ft 196 kts 64°
2026-05-04 22:18 38.58086 -9.27202 4010 ft 193 kts 63°
2026-05-04 22:18 38.58597 -9.25637 3978 ft 193 kts 63°
2026-05-04 22:18 38.59251 -9.24183 3971 ft 187 kts 42°
2026-05-04 22:18 38.60261 -9.23180 3901 ft 183 kts 25°
2026-05-04 22:19 38.61408 -9.22510 3688 ft 180 kts 18°
2026-05-04 22:19 38.62569 -9.21915 3439 ft 180 kts 19°
2026-05-04 22:19 38.63694 -9.21312 3209 ft 169 kts 19°
2026-05-04 22:19 38.64750 -9.20746 2950 ft 159 kts 19°
2026-05-04 22:20 38.65738 -9.20219 2738 ft 148 kts 19°
2026-05-04 22:20 38.66658 -9.19728 2549 ft 141 kts 18°
2026-05-04 22:20 38.67563 -9.19244 2382 ft 141 kts 18°
2026-05-04 22:20 38.68469 -9.18759 2171 ft 140 kts 19°
2026-05-04 22:21 38.69369 -9.18276 1979 ft 140 kts 18°
2026-05-04 22:21 38.70269 -9.17796 1795 ft 140 kts 18°
2026-05-04 22:21 38.71156 -9.17325 1598 ft 140 kts 20°
2026-05-04 22:21 38.72059 -9.16811 1432 ft 141 kts 25°
2026-05-04 22:22 38.72934 -9.16272 1309 ft 140 kts 18°
2026-05-04 22:22 38.73861 -9.15881 1124 ft 143 kts 15°
2026-05-04 22:22 38.74773 -9.15374 861 ft 143 kts 24°
2026-05-04 22:22 38.75690 -9.14888 724 ft 141 kts 17°
2026-05-04 22:23 38.76529 -9.14422 850 ft 127 kts 22°
2026-05-04 22:23 38.77374 -9.13919 1382 ft 149 kts 22°
2026-05-04 22:23 38.78410 -9.13276 1863 ft 172 kts 24°
2026-05-04 22:23 38.79545 -9.12529 2676 ft 194 kts 24°
2026-05-04 22:24 38.80740 -9.11570 3318 ft 210 kts 38°
2026-05-04 22:24 38.81535 -9.09968 3731 ft 222 kts 69°
2026-05-04 22:24 38.81446 -9.08009 3856 ft 228 kts 118°
2026-05-04 22:24 38.80371 -9.06525 3821 ft 228 kts 144°
2026-05-04 22:25 38.79059 -9.05277 3982 ft 235 kts 144°
2026-05-04 22:25 38.77716 -9.04078 3995 ft 235 kts 146°
2026-05-04 22:25 38.76345 -9.02986 3986 ft 235 kts 155°
2026-05-04 22:25 38.74774 -9.02589 3964 ft 231 kts 186°
2026-05-04 22:26 38.73300 -9.03215 3926 ft 215 kts 216°
2026-05-04 22:26 38.72029 -9.04206 4039 ft 216 kts 212°
2026-05-04 22:26 38.70676 -9.05057 4036 ft 217 kts 206°
2026-05-04 22:26 38.69281 -9.05812 4084 ft 218 kts 206°
2026-05-04 22:27 38.67895 -9.06599 4077 ft 218 kts 207°
2026-05-04 22:27 38.66528 -9.07408 3930 ft 216 kts 208°
2026-05-04 22:27 38.65162 -9.08208 3962 ft 217 kts 206°
2026-05-04 22:27 38.63757 -9.08958 4087 ft 219 kts 205°
2026-05-04 22:28 38.62351 -9.09661 3978 ft 217 kts 204°
2026-05-04 22:28 38.60940 -9.10360 3900 ft 217 kts 205°
2026-05-04 22:28 38.59529 -9.11068 3913 ft 218 kts 204°
2026-05-04 22:28 38.58117 -9.11785 3808 ft 217 kts 205°
2026-05-04 22:29 38.56716 -9.12507 3751 ft 217 kts 204°
2026-05-04 22:29 38.55298 -9.13182 3812 ft 219 kts 202°
2026-05-04 22:29 38.53816 -9.13623 3823 ft 219 kts 183°
2026-05-04 22:29 38.52302 -9.13332 3859 ft 223 kts 166°
2026-05-04 22:30 38.50807 -9.12764 4003 ft 224 kts 164°
2026-05-04 22:30 38.49322 -9.12177 3945 ft 222 kts 165°
2026-05-04 22:30 38.47805 -9.11873 3937 ft 222 kts 181°
2026-05-04 22:30 38.46276 -9.12077 3950 ft 219 kts 196°
2026-05-04 22:31 38.44882 -9.12743 3822 ft 214 kts 211°
2026-05-04 22:31 38.43712 -9.13896 3816 ft 212 kts 231°
2026-05-04 22:31 38.42942 -9.15462 3876 ft 207 kts 252°
2026-05-04 22:31 38.42739 -9.17258 3943 ft 202 kts 277°
2026-05-04 22:32 38.43175 -9.18914 3837 ft 198 kts 309°
2026-05-04 22:32 38.44270 -9.19949 3804 ft 199 kts 332°
2026-05-04 22:32 38.45510 -9.20726 3884 ft 199 kts 335°
2026-05-04 22:32 38.46800 -9.21368 3988 ft 199 kts 341°
2026-05-04 22:33 38.48118 -9.21857 4004 ft 199 kts 343°
2026-05-04 22:33 38.49472 -9.22296 4137 ft 201 kts 346°
2026-05-04 22:33 38.50841 -9.22650 4281 ft 201 kts 347°
2026-05-04 22:33 38.52212 -9.22991 4400 ft 202 kts 347°
2026-05-04 22:34 38.53587 -9.23326 4260 ft 200 kts 347°
2026-05-04 22:34 38.54953 -9.23668 4162 ft 201 kts 347°
2026-05-04 22:34 38.56325 -9.24019 4076 ft 200 kts 347°
2026-05-04 22:34 38.57700 -9.24336 3988 ft 200 kts 352°
2026-05-04 22:35 38.59087 -9.24227 3842 ft 198 kts 10°
2026-05-04 22:35 38.60334 -9.23589 3585 ft 189 kts 26°
2026-05-04 22:35 38.61433 -9.22703 3249 ft 183 kts 30°
2026-05-04 22:35 38.62469 -9.21891 3001 ft 171 kts 23°
2026-05-04 22:36 38.63518 -9.21255 2758 ft 161 kts 21°
2026-05-04 22:36 38.64501 -9.20696 2625 ft 146 kts 16°
2026-05-04 22:36 38.65426 -9.20237 2574 ft 146 kts 17°
2026-05-04 22:36 38.66387 -9.19812 2502 ft 147 kts 14°
2026-05-04 22:37 38.67347 -9.19336 2287 ft 148 kts 19°
2026-05-04 22:37 38.68292 -9.18829 2146 ft 148 kts 18°
2026-05-04 22:37 38.69242 -9.18351 1973 ft 145 kts 18°
2026-05-04 22:37 38.70179 -9.17849 1874 ft 148 kts 19°
2026-05-04 22:38 38.71120 -9.17329 1614 ft 146 kts 19°
2026-05-04 22:38 38.72050 -9.16812 1403 ft 145 kts 18°
2026-05-04 22:38 38.72993 -9.16331 1212 ft 146 kts 18°
2026-05-04 22:38 38.73940 -9.15833 1005 ft 148 kts 20°
2026-05-04 22:39 38.74902 -9.15313 773 ft 152 kts 20°
2026-05-04 22:39 38.75869 -9.14796 576 ft 151 kts 20°
2026-05-04 22:39 38.76837 -9.14285 384 ft 149 kts 21°
2026-05-04 22:39 38.77450 -9.13953 367 ft 137 kts 19°
2026-05-04 22:40 38.78366 -9.13468 366 ft 74 kts 22°
2026-05-04 22:40 38.78561 -9.13287 362 ft 8 kts 114°
2026-05-04 22:40 38.78519 -9.13252 363 ft 7 kts 155°
2026-05-04 22:40 38.78466 -9.13228 359 ft 9 kts 166°
2026-05-04 22:41 38.78426 -9.13225 360 ft 8 kts 188°
2026-05-04 22:41 38.78347 -9.13250 363 ft 11 kts 200°
2026-05-04 22:41 38.78297 -9.13275 364 ft 13 kts 201°
2026-05-04 22:41 38.78173 -9.13342 361 ft 16 kts 203°
2026-05-04 22:42 38.78099 -9.13383 360 ft 18 kts 203°
2026-05-04 22:42 38.77958 -9.13455 361 ft 14 kts 202°
2026-05-04 22:42 38.77899 -9.13487 365 ft 13 kts 203°
2026-05-04 22:42 38.77797 -9.13543 366 ft 11 kts 204°
2026-05-04 22:43 38.77748 -9.13571 360 ft 12 kts 203°
2026-05-04 22:43 38.77670 -9.13612 361 ft 12 kts 202°
2026-05-04 22:43 38.77594 -9.13653 365 ft 12 kts 203°
2026-05-04 22:43 38.77522 -9.13690 361 ft 11 kts 201°
2026-05-04 22:44 38.77456 -9.13724 362 ft 10 kts 202°
2026-05-04 22:44 38.77397 -9.13755 362 ft 9 kts 202°
2026-05-04 22:44 38.77335 -9.13790 364 ft 13 kts 206°
2026-05-04 22:44 38.77248 -9.13839 361 ft 11 kts 203°
2026-05-04 22:45 38.77181 -9.13802 358 ft 14 kts 94°
2026-05-04 22:45 38.77203 -9.13650 358 ft 0 kts 77°
2026-05-04 22:45 38.77203 -9.13648 361 ft 2 kts 77°
2026-05-04 22:46 38.77202 -9.13644 361 ft 0 kts 98°
2026-05-04 22:46 38.77199 -9.13641 362 ft 1 kts 120°
2026-05-04 22:46 38.77194 -9.13636 362 ft 0 kts 141°
2026-05-04 22:46 38.77187 -9.13627 361 ft 3 kts 128°
2026-05-04 22:47 38.77177 -9.13607 361 ft 1 kts 124°
2026-05-04 22:47 38.77166 -9.13600 359 ft 3 kts 152°
2026-05-04 22:47 38.77157 -9.13599 361 ft 0 kts 178°
2026-05-04 22:47 38.77154 -9.13599 361 ft 1 kts 181°
2026-05-04 22:48 38.77141 -9.13603 357 ft 1 kts 194°
2026-05-04 22:48 38.77140 -9.13603 357 ft 0 kts 197°
2026-05-04 22:48 38.77141 -9.13603 357 ft 0 kts 198°
2026-05-04 22:49 38.77144 -9.13602 357 ft 1 kts 200°
2026-05-04 22:49 38.77140 -9.13603 357 ft 2 kts 199°